Lid_Strength_Index
8 8 8 7 7 7 7 7 7 7 7 7 7 7 7 7 6 10 12 11 12 15 13 11 9 11 11 12 16 13 13 11 13 18 17 18 16 12 13 12 13 14 15 17 16 20 19 9 10 13 10 10 8 7
9 9 9 8 8 7 7 7 6 6 6 6 6 6 6 6 5 7 12 9 8 11 12 8 8 7 8 9 11 11 12 12 13 16 18 16 14 12 13 17 9 14 14 18 14 15 10 10 10 9 7 7 7 7
8 8 8 8 7 7 7 6 6 6 5 5 5 5 5 4 4 6 10 9 9 11 12 11 10 7 5 6 6 12 11 8 9 8 12 12 13 11 15 14 12 10 9 13 13 11 10 9 8 7 7 8 7 6
8 8 7 7 7 6 6 5 5 5 5 5 5 4 4 3 2 4 7 8 8 10 12 12 7 8 6 5 5 5 6 6 7 7 9 11 12 8 13 12 12 11 11 12 13 11 9 8 7 7 7 7 6 6
6 5 5 5 5 5 5 5 5 4 4 4 3 3 2 2 1 4 6 6 6 10 16 12 8 7 6 6 6 6 6 8 9 8 9 11 9 10 10 10 12 10 11 13 14 9 9 9 8 7 7 6 5 5
4 4 4 4 4 3 3 3 3 3 3 2 2 1 1 1 1 5 9 7 5 3 10 14 8 8 7 7 8 8 8 8 8 8 9 9 8 10 14 14 10 9 8 8 10 9 9 8 6 5 6 5 5 5
2 2 2 2 2 1 1 1 2 2 2 1 1 1 0 -0 4 7 9 7 3 3 9 14 13 9 8 8 10 10 8 8 8 8 10 10 10 9 12 14 11 9 9 8 7 7 7 6 7 5 5 5 5 6
1 1 2 1 1 1 1 1 1 1 0 0 -0 -0 0 -0 1 5 4 1 2 8 8 13 13 11 8 10 11 8 9 9 9 11 11 11 11 11 14 11 10 8 7 6 5 5 6 6 6 5 5 6 7 8
2 2 1 1 1 1 1 0 1 0 0 0 1 1 2 4 7 7 2 2 6 9 13 11 13 14 7 8 8 8 7 13 8 10 11 11 12 14 11 10 9 8 7 7 7 7 7 8 7 6 6 7 8 9
2 2 2 2 2 2 1 1 1 1 1 1 6 10 15 8 3 3 7 8 8 9 9 12 10 13 9 10 11 11 10 12 13 11 9 12 13 9 8 7 7 7 7 7 8 9 9 9 8 7 7 7 8 9
2 1 1 1 1 1 1 1 1 2 3 8 12 14 8 2 6 10 15 13 12 13 10 9 10 12 8 12 12 10 12 12 14 12 12 12 12 9 7 7 7 7 8 8 7 7 7 8 8 8 8 7 8 8
2 2 1 1 1 1 1 1 2 5 7 7 6 5 4 6 9 12 14 12 12 13 10 12 10 9 9 8 11 11 13 13 16 10 12 14 10 8 7 8 8 8 8 8 7 7 7 8 8 8 8 8 8 8
1 1 2 1 1 1 1 1 1 2 3 5 5 8 9 14 17 17 19 14 15 11 10 8 10 8 8 8 11 11 13 17 13 17 16 11 8 7 7 8 9 8 8 8 7 7 7 8 8 8 9 9 9 9
2 2 2 1 1 1 1 1 1 3 6 9 10 17 13 19 14 15 13 11 11 9 9 9 9 9 8 10 10 13 13 13 17 18 14 10 8 8 7 8 9 9 8 9 8 8 8 8 8 8 10 11 10 10
2 2 2 2 2 2 2 1 1 5 7 9 9 17 16 13 13 12 10 10 9 7 8 9 9 9 10 11 11 12 16 18 14 16 12 10 8 7 8 8 9 9 8 8 8 9 9 9 8 9 8 10 10 12
3 3 5 2 2 2 2 2 3 5 7 8 9 11 12 11 15 18 12 9 7 8 10 9 10 12 12 12 13 15 14 16 14 13 9 8 9 8 8 8 8 8 8 8 8 8 8 9 9 8 8 8 8 12
4 8 4 2 2 2 2 4 6 8 8 10 11 9 11 11 12 14 10 9 7 8 12 10 13 13 11 12 12 10 12 11 9 9 8 9 9 9 9 8 8 9 8 8 9 8 8 8 9 9 9 7 8 9
9 8 4 3 4 4 5 6 8 9 11 10 12 15 15 13 15 13 11 8 8 8 8 11 9 12 13 14 14 11 10 10 8 10 9 10 10 9 9 9 9 9 9 9 9 8 9 8 9 9 8 7 7 7
8 7 5 4 5 7 9 8 7 11 11 11 11 12 12 12 11 11 11 9 8 8 8 10 11 12 13 12 11 13 11 11 11 9 9 9 10 10 10 10 9 10 10 10 9 9 9 8 9 8 7 7 8 8
5 5 4 4 5 10 10 10 7 10 11 10 10 11 11 11 11 11 11 10 9 8 9 10 11 11 11 9 8 10 9 8 8 11 11 12 11 11 10 10 10 10 10 10 10 12 10 10 9 7 7 7 8 9
7 6 5 7 9 9 11 11 10 9 9 10 10 10 10 10 10 9 9 10 9 10 12 11 11 10 9 9 9 9 10 10 10 10 11 12 10 10 10 10 10 10 12 12 12 11 11 10 9 8 9 8 8 8
8 5 9 8 10 10 11 11 12 10 11 10 11 11 12 16 15 13 8 10 12 12 11 11 10 10 10 11 10 10 9 9 9 10 10 10 11 11 11 11 11 11 11 11 11 11 10 9 9 9 10 8 7 8
6 8 10 10 13 13 14 11 12 11 13 12 11 12 14 14 12 9 13 11 12 10 10 9 9 9 10 9 9 10 10 11 11 11 11 11 11 11 12 11 11 12 12 11 10 10 10 9 10 11 10 10 10 9
7 11 15 14 13 17 14 17 12 12 12 13 14 16 14 15 11 13 14 14 12 11 11 11 11 11 10 10 12 12 12 11 11 11 10 11 12 12 11 11 11 12 12 12 13 13 13 12 12 12 12 12 12 11
16 17 18 23 17 18 20 19 18 15 19 16 16 18 16 12 17 17 17 17 14 15 14 12 12 12 13 14 13 13 12 13 13 13 12 11 13 12 12 12 11 11 11 14 15 15 16 15 14 13 13 13 12 13
21 21 19 19 21 17 17 21 22 21 19 20 19 15 15 18 19 19 16 17 17 14 16 15 14 14 14 14 14 14 14 13 13 14 13 12 13 14 15 16 15 14 12 14 14 15 16 16 16 15 14 13 13 13
23 21 13 11 13 13 19 18 14 18 21 23 19 20 20 21 22 18 16 14 14 13 12 13 13 14 15 14 14 13 13 13 14 13 12 11 11 12 15 17 16 14 13 13 13 14 16 16 16 16 15 14 14 14
16 15 19 19 19 15 23 22 22 22 20 14 16 22 23 21 21 19 16 14 15 13 13 14 14 14 14 13 14 15 16 16 15 14 14 13 12 13 15 15 15 12 13 14 14 13 14 15 15 15 16 16 15 14
17 15 16 23 23 21 21 20 19 15 13 15 20 18 18 17 17 17 15 16 16 16 17 17 18 17 17 16 17 17 18 17 17 17 19 17 16 16 15 15 14 14 14 14 13 12 13 13 13 13 14 14 14 13
19 14 20 26 24 22 20 17 19 19 15 15 15 15 16 19 17 15 16 17 19 20 21 24 24 26 23 23 19 20 19 19 20 18 16 17 15 14 14 14 13 13 13 13 14 14 13 13 14 15 15 15 14 13
17 19 21 22 23 22 23 26 28 24 26 24 20 17 19 19 17 17 17 19 21 26 24 22 20 21 23 18 21 17 16 19 21 15 14 14 14 14 13 12 12 12 13 13 13 14 15 16 16 15 15 15 14 13
23 22 22 23 22 24 26 28 29 28 30 23 24 23 21 21 22 19 19 22 24 23 22 23 24 17 19 20 19 19 19 16 16 14 15 14 13 13 13 13 13 13 13 14 15 15 16 16 16 16 15 14 12 12
27 28 28 27 24 24 26 25 25 26 29 24 25 26 22 22 22 21 22 22 20 20 20 19 19 20 19 20 19 18 19 18 18 15 15 15 16 13 13 13 13 14 16 16 16 16 16 16 16 16 15 13 12 13